星链-1636 (STARLINK-1636 )

导读

STARLINK-1636是美国太空探索技术公司星链星座的一颗卫星,于2020年8月18日发射升空。星链计划旨在构建全球卫星互联网星座,为全球多地提供低延迟、高速率的互联网接入服务。该卫星作为星链组网的组成单元,助力星座完成全球覆盖布局,推动低轨卫星通信网络的建设进程。

基本信息
目录编号:
46153
目录名称:
STARLINK-1636
国际标识:
2020-057AN
轨道中心:
EARTH
卫星名称:
星链-1636
卫星全名:
星链-1636 (STARLINK-1636 )
卫星状态:
已陨落 最后检测时间 2025-09-22
发射日期:
2020-08-18 UTC
国别 :
美国 (US)
星等 :
--
轨道信息
数据来源 国际轨道数据
星历时间: 2025-09-22T07:54:40+0800
轨道信息已过期269天
半长轴: 6523.351km
偏心率: 0.0005052
轨道倾角: 52.996°
近地点辐角 265.684°
升交点赤经 255.800°
平近点角 94.363°
近地点: 141.92km
远地点: 148.512km
周期: 87.391分钟
每日圈数: 16.477703
详细信息
固有亮度:
5
最大亮度:
2.5
卫星平台:
Starlink V1.0
覆盖范围:
全球
运营商:
太空探索技术公司
运营商所在国:
美国
制造商(研发单位):
太空探索技术公司
制造商所在国:
美国
使用方式:
暂无
卫星简介
星链(Starlink)计划是由太空探索技术公司(SpaceX)提出的一个巨型低轨卫星互联网星座项目,计划在2019年至2024年间在太空搭建由约1.2万颗卫星组成的“星链”网络,其中1584颗将部署在地球上空550千米处的近地轨道,并从2020年开始工作。该卫星仍在工作。